Location: Dammartin
(48.9032°N, 1.6195°E)
Time: 12:59:54
(UTC+00:00)

YUBILEINY - Pass Details

Date: 13 December 2023
Orbit: 1479 x 1508 km, 82.5° (Epoch: 02 March)

Event Time Altitude Azimuth Distance (km) Brightness Sun altitude
Rises 06:42:55 0° 139° (SE) 4,632 ? -8.7°
Reaches altitude 10° 06:46:28 10° 126° (SE) 3,652 ? -8.2°
Maximum altitude 06:53:01 24° 77° (ENE) 2,700 ? -7.2°
Drops below altitude 10° 06:59:33 10° 29° (NNE) 3,651 ? -6.3°
Sets 07:03:04 0° 16° (NNE) 4,631 ? -5.8°
